Rochester, NY

7:28 AM EDT on October 22, 2019 (GMT -0400)
Greater Rochester International

Weather History for KROC - May, 2019

Change the Weather History Date:

Sunday, May 26, 2019

  Actual Average Record
Temperature  
Mean Temperature 67 °F 60 °F  
Max Temperature 79 °F 71 °F 90 °F (1944)
Min Temperature 55 °F 50 °F 36 °F (1879)
Degree Days  
Heating Degree Days 0 6  
Month to date heating degree days 245 248  
Since 1 July heating degree days 6369 6551  
Cooling Degree Days 2 1  
Month to date cooling degree days 10 17  
Year to date cooling degree days 10 21  
Growing Degree Days 19 (Base 50)    
Moisture  
Dew Point 57 °F    
Average Humidity 70    
Maximum Humidity 93    
Minimum Humidity 46    
Precipitation  
Precipitation 0.00 in 0.10 in 1.03 in (1907)
Month to date precipitation 2.49 2.41  
Year to date precipitation 12.42 12.00  
Snow  
Snow 0.00 in 0.00 in 0.00 in ()
Month to date snowfall 0.0 0.4  
Since 1 July snowfall 97.1 99.5  
Snow Depth 0.00 in    
Sea Level Pressure  
Sea Level Pressure 29.94 in    
Wind  
Wind Speed 10 mph (WNW)    
Max Wind Speed 22 mph    
Max Gust Speed 28 mph    
Visibility 10 miles    
Events      
T = Trace of Precipitation, MM = Missing Value Source: NWS Daily Summary

Daily Weather History Graph

Daily Weather History Graph

Search for Another Location

Airport or City:

Astronomy

May. 26, 2019 Rise Set
Actual Time 5:37 AM EDT 8:38 PM EDT
Civil Twilight 5:03 AM EDT 9:12 PM EDT
Nautical Twilight 4:20 AM EDT 9:55 PM EDT
Astronomical Twilight 3:29 AM EDT 10:47 PM EDT
Moon 2:06 AM EDT (5/26) 12:37 PM EDT (5/26)
Length of Visible Light 16h 08m
Length of Day
15h 00m
Waning Gibbous, 50% of the Moon is Illuminated
May 26
Waning Gibbous
May 26
Last Quarter
Jun 3
New
Jun 10
First Quarter
Jun 17
Full

Hourly Weather History & Observations

Time (EDT) Temp. Dew Point Humidity Pressure Visibility Wind Dir Wind Speed Gust Speed Precip Events Conditions
12:54 AM 64.9 °F 61.0 °F 87% 29.89 in 10.0 mi WSW 10.4 mph - N/A   Mostly Cloudy
1:54 AM 64.9 °F 62.1 °F 90% 29.88 in 10.0 mi WSW 9.2 mph - N/A   Scattered Clouds
2:54 AM 66.0 °F 63.0 °F 90% 29.89 in 10.0 mi West 9.2 mph - N/A   Mostly Cloudy
3:54 AM 66.0 °F 63.0 °F 90% 29.89 in 10.0 mi WSW 9.2 mph - N/A   Mostly Cloudy
4:54 AM 66.0 °F 62.1 °F 87% 29.90 in 10.0 mi West 6.9 mph - N/A   Scattered Clouds
5:54 AM 66.0 °F 62.1 °F 87% 29.90 in 10.0 mi WSW 8.1 mph - N/A   Scattered Clouds
6:37 AM 66.9 °F 63.0 °F 87% 29.91 in 10.0 mi West 8.1 mph - N/A   Mostly Cloudy
6:54 AM 66.9 °F 63.0 °F 87% 29.92 in 10.0 mi WSW 9.2 mph - N/A   Mostly Cloudy
7:54 AM 69.1 °F 63.0 °F 81% 29.95 in 10.0 mi West 11.5 mph - N/A   Mostly Cloudy
8:01 AM 70.0 °F 64.0 °F 81% 29.95 in 10.0 mi West 9.2 mph - N/A   Mostly Cloudy
8:54 AM 72.0 °F 63.0 °F 73% 29.96 in 10.0 mi West 13.8 mph - N/A   Mostly Cloudy
9:54 AM 73.9 °F 62.1 °F 66% 29.95 in 10.0 mi West 16.1 mph 21.9 mph N/A   Mostly Cloudy
10:54 AM 75.9 °F 61.0 °F 60% 29.94 in 10.0 mi West 12.7 mph 18.4 mph N/A   Mostly Cloudy
11:54 AM 78.1 °F 59.0 °F 52% 29.94 in 10.0 mi West 8.1 mph - N/A   Mostly Cloudy
12:54 PM 78.1 °F 57.9 °F 50% 29.93 in 10.0 mi West 10.4 mph 19.6 mph N/A   Mostly Cloudy
1:54 PM 78.1 °F 61.0 °F 56% 29.93 in 10.0 mi North 12.7 mph - N/A   Mostly Cloudy
2:54 PM 75.9 °F 53.1 °F 45% 29.94 in 10.0 mi NNW 12.7 mph 21.9 mph N/A   Mostly Cloudy
3:54 PM 73.0 °F 52.0 °F 48% 29.94 in 10.0 mi North 15.0 mph - N/A   Mostly Cloudy
4:54 PM 71.1 °F 51.1 °F 49% 29.95 in 10.0 mi North 12.7 mph - N/A   Overcast
5:54 PM 69.1 °F 48.9 °F 49% 29.96 in 10.0 mi NNW 13.8 mph - N/A   Overcast
6:54 PM 69.1 °F 48.0 °F 47% 29.96 in 10.0 mi NNW 10.4 mph - N/A   Overcast
7:54 PM 66.9 °F 46.0 °F 47% 29.97 in 10.0 mi NW 6.9 mph - N/A   Mostly Cloudy
8:54 PM 66.0 °F 46.9 °F 50% 29.97 in 10.0 mi WNW 4.6 mph - N/A   Mostly Cloudy
9:54 PM 62.1 °F 48.0 °F 60% 29.98 in 10.0 mi West 3.5 mph - N/A   Mostly Cloudy
10:54 PM 59.0 °F 48.0 °F 67% 29.99 in 10.0 mi West 4.6 mph - N/A   Mostly Cloudy
11:54 PM 57.0 °F 46.9 °F 69% 30.00 in 10.0 mi West 5.8 mph - N/A   Scattered Clouds